Regional Weather Roundup
Issued by NWS

Home | Current Version | Previous Version | Text Only | Print | Product List | Glossary Off
Versions: 1 2 3 4 5 6 7 8 9 10 11 12 13 14 15 16 17 18 19 20 21 22 23 24 25 26 27 28 29 30 31 32 33 34 35 36 37 38 39 40 41 42 43 44 45 46 47 48 49 50

000
ASUS43 KMKX 040159
RWRWI

WISCONSIN REGIONAL WEATHER ROUNDUP
NATIONAL WEATHER SERVICE MILWAUKEE/SULLIVAN WI
800 PM CST TUE MAR 03 2015

NOTE: "FAIR" INDICATES FEW OR NO CLOUDS BELOW 12,000 FEET WITH NO
SIGNIFICANT WEATHER AND/OR OBSTRUCTIONS TO VISIBILITY.

WIZ001-002-006>008-014>016-023>028-040300-
NORTHWEST WISCONSIN

CITY           SKY/WX    TMP DP  RH WIND       PRES   REMARKS
SUPERIOR ARPT  CLEAR     14   1  57 NW20G25   29.82R WCI  -3
ASHLAND        CLEAR     16   3  56 W15G26    29.77R WCI   1
HAYWARD        CLEAR     16   2  54 W12G20    29.77R WCI   3
SIREN          CLEAR     16   3  58 NW16G25   29.84R WCI   0
CUMBERLAND     CLEAR     18   3  53 NW13G21   29.78R WCI   4
RICE LAKE      CLEAR     19   5  55 W14G23    29.79R WCI   5
CHETEK         CLEAR     19   5  55 W7        29.79R WCI   9
LADYSMITH      CLEAR     20   5  51 W14       29.76R WCI   7
EAU CLAIRE     CLEAR     20   7  57 W21G26    29.81R WCI   4
MENOMONIE      CLEAR     20   8  58 W14G24    29.82R WCI   7
NEW RICHMOND   CLEAR     15   4  62 NW18G26   29.85R WCI  -2
OSCEOLA        PTCLDY    15   4  62 W16G24    29.90R WCI  -1
$$

WIZ003>005-009-010-017-018-040300-
NORTH CENTRAL WISCONSIN

CITY           SKY/WX    TMP DP  RH WIND       PRES   REMARKS
MANITOWISH WTR CLEAR     17   8  68 W13       29.66R WCI   3
ARBOR VITAE    FLURRIES  22  15  74 NW12G18   29.65R WCI  10
WOODRUFF       FLURRIES  22  15  74 NW12G18   29.65R WCI  10
RHINELANDER    CLOUDY    21  13  71 W14G21    29.64R WCI   8
EAGLE RIVER    MOCLDY    20  13  71 NW10G16   29.62R WCI   9
LAND O LAKES   FLURRIES  21  15  76 NW14G23   29.62R WCI   8
PHILLIPS       PTCLDY    19   9  64 W7        29.68R WCI  10
TOMAHAWK       FLURRIES  23  18  81 W14G20    29.66R WCI  10
MEDFORD        CLEAR     22  13  67 W13       29.68R WCI  10
MERRILL        CLOUDY    25  17  72 W10G20    29.66R WCI  15
$$

WIZ029-030-035-036-043>047-040300-
CENTRAL WISCONSIN

CITY           SKY/WX    TMP DP  RH WIND       PRES   REMARKS
WAUSAU         CLOUDY    25  17  72 W14       29.67R WCI  13
MOSINEE        MOCLDY    25  19  80 W12G17    29.69R WCI  14
MARSHFIELD     PTCLDY    24  13  62 NW16G28   29.73R WCI  11
STEVENS POINT  CLOUDY    26  16  65 W15G28    29.70R WCI  13
WAUPACA        CLOUDY    31  21  68 W12G17    29.71R WCI  21
WAUTOMA        NOT AVBL
WISC RAPIDS    CLOUDY    28  17  63 W10       29.75R WCI  19
CAMP DOUGLAS   CLOUDY    28  23  80 NW15G22   29.77R WCI  17
$$

WIZ011>013-019>022-031-037>040-048>050-040300-
NORTHEAST WISCONSIN

CITY           SKY/WX    TMP DP  RH WIND       PRES   REMARKS
ANTIGO         MOCLDY    23  16  74 W13       29.62R WCI  11
SHAWANO        CLOUDY    30  21  69 W8        29.67R WCI  23
OCONTO         CLOUDY    28  21  76 W7        29.66R WCI  20
STURGEON BAY   CLOUDY    27  19  74 W13G18    29.66R WCI  16
GREEN BAY      CLOUDY    29  20  69 W12       29.69R WCI  19
MANITOWOC      CLOUDY    28  23  80 W6        29.70R WCI  22
APPLETON       CLOUDY    28  19  69 W15       29.70R WCI  17
CLINTONVILLE   CLOUDY    28  21  74 W10       29.68R WCI  19
OSHKOSH        CLOUDY    29  21  72 W9        29.73R WCI  20
$$

WIZ032>034-041-042-053>061-040300-
SOUTHWEST WISCONSIN

CITY           SKY/WX    TMP DP  RH WIND       PRES   REMARKS
LA CROSSE      PTCLDY    24  13  62 W17       29.85R WCI  11
SPARTA         CLOUDY    29  18  64 W15G21    29.79R WCI  18
VIROQUA        CLOUDY    27  21  77 W14       29.79R WCI  15
BOSCOBEL       CLOUDY    31  21  66 W9        29.83R WCI  23
PRAIRIE DU CHI CLOUDY    28  19  69 W16       29.84R WCI  16
PLATTEVILLE    CLOUDY    29  24  81 W15G21    29.81R WCI  18
$$

WIZ056-057-062-063-064-067-068-040300-
SOUTH CENTRAL WISCONSIN

CITY           SKY/WX    TMP DP  RH WIND       PRES   REMARKS
REEDSBURG      CLOUDY    29  22  73 W10G20    29.76R WCI  20
BARABOO/DELLS  CLOUDY    29  22  74 W12       29.76R WCI  20
LONE ROCK      NOT AVBL
MINERAL POINT  CLOUDY    32  25  74 W18G24    29.78R WCI  20
MADISON        CLOUDY    30  22  72 W6        29.78R WCI  24
MIDDLETON      CLOUDY    31  24  74 W9        29.77R WCI  23
WATERTOWN      MOCLDY    28  24  83 W5        29.75R WCI  23
MONROE         CLOUDY    30  27  86 W13       29.77R WCI  20
JANESVILLE     CLOUDY    32  25  74 W6        29.78R WCI  26
$$

WIZ051-052-058>065-066-070>072-040300-
SOUTHEAST WISCONSIN

CITY           SKY/WX    TMP DP  RH WIND       PRES   REMARKS
MILWAUKEE      CLOUDY    31  21  66 W9        29.77R WCI  23
WAUKESHA       CLOUDY    27  21  80 W9        29.76R WCI  17
MILWAUKEE/TIMM CLOUDY    28  21  74 W10G16    29.76R WCI  19
RACINE         CLOUDY    31  22  69 W9        29.79R WCI  23
BURLINGTON     CLOUDY    28  22  77 W7        29.78R WCI  21
KENOSHA        CLOUDY    31  24  75 W12       29.78R WCI  22
FOND DU LAC    CLOUDY    29  21  72 W10       29.73R WCI  20
SHEBOYGAN      CLOUDY    29  21  72 W10       29.72R WCI  20
WEST BEND      CLOUDY    28  21  74 W9        29.73R WCI  20
JUNEAU         CLOUDY    28  22  81 W7        29.75R WCI  20
$$

LSZ147-162-040300-
LAKE SUPERIOR

STATION/POSITION TIME  TEMP    WIND        PRES    WAVE
                       AIR SEA DIR/SP/G            HT/PER
                 (UTC) (F)     (DEG/KT/KT) (MB)    (FT/S)
DEVILS ISLAND    0100   20     290/ 25/ 29 1006.4R
PORT WING        0120   18     280/ 20     1008.1R
SAXON HARBOR     0100   21     280/  8/ 15 1006.1R
$$

LMZ867-665-643>646-040300-
LAKE MICHIGAN

STATION/POSITION TIME  TEMP    WIND        PRES    WAVE
                       AIR SEA DIR/SP/G            HT/PER
                 (UTC) (F)     (DEG/KT/KT) (MB)    (FT/S)
NORTHPORT PIER   0100   27     270/  4/ 10 1002.7R
SISTER BAY       0113   24     290/ 12/ 13   N/A
KEWAUNEE LAKESHO 0100   27     260/ 10/ 16 1003.4R
SHEBOYGAN LAKESH 0100   29     280/  6/  8 1006.7R
PORT WASHINGTON  0120   30     280/  3/  8 1008.1R
MILWAUKEE LAKESH 0100   31     290/  9/ 12   N/A
KENOSHA   LAKESH 0100   32     280/  9/ 14 1007.8R
$$

TC  - TEMPERATURE IN CELSIUS
VSB - VISIBILITY IN STATUTE MILES
WCI - WIND CHILL INDEX
HX  - HEAT INDEX



USA.gov is the U.S. government's official web portal to all federal, state and local government web resources and services.